• In Uzbekistan
  • List of Countries
  • For 7 days
  • Water Temperature
  • Satellite Maps
  • Weather Map
  • Weather Widgets
  • user-avatar
    Login

    Hourly Weather Lankaran

    Today, 23 April, Sunday

    Time Temperature Precipitation Wind Pressure Humidity
    00:00 +8°C° 0 mm 1 mps 636 mmHg 75%
    01:00 +8°C° 0 mm 1 mps 636 mmHg 76%
    02:00 +8°C° 0 mm 1 mps 635 mmHg 77%
    03:00 +6°C° 0 mm 2 mps 635 mmHg 85%
    04:00 +7°C° 0 mm 2 mps 635 mmHg 82%
    05:00 +7°C° 0 mm 2 mps 635 mmHg 79%
    06:00 +8°C° 0 mm 2 mps 635 mmHg 76%
    07:00 +10°C° 0 mm 2 mps 635 mmHg 66%
    08:00 +13°C° 0 mm 3 mps 636 mmHg 57%
    09:00 +16°C° 0 mm 3 mps 636 mmHg 51%
    10:00 +18°C° 0 mm 4 mps 636 mmHg 46%
    11:00 +19°C° 0 mm 4 mps 635 mmHg 40%
    12:00 +21°C° 0 mm 5 mps 635 mmHg 35%
    13:00 +21°C° 0 mm 5 mps 634 mmHg 34%
    14:00 +22°C° 0 mm 5 mps 634 mmHg 33%
    15:00 +22°C° 0 mm 5 mps 633 mmHg 32%
    16:00 +21°C° 0 mm 4 mps 632 mmHg 36%
    17:00 +19°C° 0 mm 4 mps 631 mmHg 39%
    18:00 +18°C° 0 mm 3 mps 630 mmHg 43%
    19:00 +18°C° 0 mm 4 mps 630 mmHg 41%
    20:00 +17°C° 0 mm 4 mps 630 mmHg 39%
    21:00 +16°C° 0 mm 5 mps 629 mmHg 37%
    22:00 +15°C° 0.1 mm 5 mps 629 mmHg 39%
    23:00 +15°C° 0.1 mm 5 mps 629 mmHg 42%

    Tomorrow, 24 April, Monday

    Time Temperature Precipitation Wind Pressure Humidity
    00:00 +14°C° 0.1 mm 5 mps 628 mmHg 44%
    01:00 +14°C° 0 mm 5 mps 628 mmHg 44%
    02:00 +13°C° 0 mm 4 mps 628 mmHg 44%
    03:00 +13°C° 0 mm 4 mps 627 mmHg 44%
    04:00 +13°C° 0 mm 4 mps 628 mmHg 45%
    05:00 +13°C° 0 mm 5 mps 628 mmHg 47%
    06:00 +13°C° 0 mm 5 mps 628 mmHg 48%
    07:00 +15°C° 0 mm 6 mps 629 mmHg 45%
    08:00 +17°C° 0 mm 6 mps 630 mmHg 42%
    09:00 +18°C° 0 mm 7 mps 631 mmHg 39%
    10:00 +19°C° 0.2 mm 6 mps 631 mmHg 40%
    11:00 +20°C° 0.2 mm 6 mps 631 mmHg 40%
    12:00 +20°C° 0.2 mm 5 mps 631 mmHg 41%
    13:00 +17°C° 0.4 mm 5 mps 631 mmHg 46%
    14:00 +16°C° 0.4 mm 5 mps 631 mmHg 52%
    15:00 +14°C° 0.4 mm 5 mps 630 mmHg 58%
    16:00 +12°C° 0.3 mm 4 mps 630 mmHg 63%
    17:00 +10°C° 0.3 mm 4 mps 630 mmHg 68%
    18:00 +9°C° 0.3 mm 3 mps 630 mmHg 72%
    19:00 +7°C° 0 mm 3 mps 631 mmHg 74%
    20:00 +5°C° 0 mm 3 mps 631 mmHg 76%
    21:00 +5°C° 0 mm 2 mps 632 mmHg 78%
    22:00 +5°C° 0 mm 2 mps 632 mmHg 77%
    23:00 +5°C° 0 mm 2 mps 632 mmHg 77%

    Day after tomorrow, 25 April, Tuesday

    Time Temperature Precipitation Wind Pressure Humidity
    00:00 +5°C° 0 mm 1 mps 632 mmHg 76%
    01:00 +5°C° 0 mm 1 mps 632 mmHg 77%
    02:00 +5°C° 0 mm 1 mps 632 mmHg 78%
    03:00 +4°C° 0 mm 1 mps 632 mmHg 79%
    04:00 +5°C° 0 mm 1 mps 633 mmHg 78%
    05:00 +5°C° 0 mm 1 mps 633 mmHg 76%
    06:00 +6°C° 0 mm 1 mps 634 mmHg 75%
    07:00 +7°C° 0 mm 1 mps 634 mmHg 69%
    08:00 +7°C° 0 mm 2 mps 635 mmHg 63%
    09:00 +9°C° 0 mm 3 mps 636 mmHg 58%
    10:00 +9°C° 0 mm 3 mps 636 mmHg 56%
    11:00 +10°C° 0 mm 4 mps 636 mmHg 55%
    12:00 +11°C° 0 mm 4 mps 636 mmHg 53%
    13:00 +10°C° 0 mm 4 mps 636 mmHg 58%
    14:00 +8°C° 0 mm 5 mps 636 mmHg 63%
    15:00 +7°C° 0 mm 5 mps 635 mmHg 68%
    16:00 +6°C° 0.1 mm 5 mps 636 mmHg 73%
    17:00 +5°C° 0.1 mm 5 mps 636 mmHg 78%
    18:00 +2°C° 0.1 mm 5 mps 636 mmHg 84%
    19:00 +2°C° 0.1 mm 5 mps 637 mmHg 84%
    20:00 +3°C° 0.1 mm 4 mps 637 mmHg 85%
    21:00 +1°C° 0.1 mm 4 mps 638 mmHg 86%
    22:00 +1°C° 0.2 mm 4 mps 638 mmHg 87%
    23:00 +1°C° 0.2 mm 4 mps 639 mmHg 87%

    26 April, Wednesday

    Time Temperature Precipitation Wind Pressure Humidity
    00:00 +2°C° 0.2 mm 3 mps 639 mmHg 88%
    01:00 +1°C° 0.2 mm 3 mps 639 mmHg 89%
    02:00 +1°C° 0.2 mm 3 mps 639 mmHg 89%
    03:00 0°C° 0.2 mm 3 mps 639 mmHg 90%
    04:00 0°C° 0.2 mm 3 mps 639 mmHg 89%
    05:00 0°C° 0.2 mm 3 mps 640 mmHg 88%
    06:00 0°C° 0.2 mm 3 mps 640 mmHg 87%
    07:00 +1°C° 0.1 mm 3 mps 641 mmHg 85%
    08:00 +1°C° 0.1 mm 3 mps 641 mmHg 82%
    09:00 +1°C° 0.1 mm 4 mps 641 mmHg 79%
    10:00 +3°C° 0.1 mm 4 mps 641 mmHg 77%
    11:00 +3°C° 0.1 mm 4 mps 641 mmHg 75%
    12:00 +4°C° 0.1 mm 4 mps 641 mmHg 74%
    13:00 +4°C° 0 mm 4 mps 641 mmHg 73%
    14:00 +4°C° 0 mm 3 mps 640 mmHg 73%
    15:00 +4°C° 0 mm 3 mps 640 mmHg 73%
    16:00 +3°C° 0 mm 3 mps 640 mmHg 76%
    17:00 +3°C° 0 mm 3 mps 640 mmHg 78%
    18:00 +3°C° 0 mm 2 mps 640 mmHg 81%
    19:00 +2°C° 0 mm 2 mps 640 mmHg 83%
    20:00 +2°C° 0 mm 2 mps 640 mmHg 86%
    21:00 +2°C° 0 mm 1 mps 640 mmHg 88%
    22:00 +2°C° 0 mm 1 mps 640 mmHg 88%
    23:00 +2°C° 0 mm 1 mps 640 mmHg 89%

    27 April, Thursday

    Time Temperature Precipitation Wind Pressure Humidity
    00:00 +1°C° 0 mm 1 mps 639 mmHg 89%
    01:00 +1°C° 0 mm 1 mps 639 mmHg 90%
    02:00 +1°C° 0 mm 1 mps 639 mmHg 90%
    03:00 +1°C° 0 mm 1 mps 639 mmHg 90%
    04:00 +2°C° 0 mm 1 mps 639 mmHg 90%
    05:00 +2°C° 0 mm 1 mps 639 mmHg 89%
    06:00 +1°C° 0 mm 2 mps 640 mmHg 89%
    07:00 +2°C° 0 mm 2 mps 640 mmHg 85%
    08:00 +3°C° 0 mm 2 mps 640 mmHg 81%
    09:00 +4°C° 0 mm 2 mps 640 mmHg 77%
    10:00 +4°C° 0 mm 3 mps 640 mmHg 75%
    11:00 +5°C° 0 mm 3 mps 640 mmHg 73%
    12:00 +7°C° 0 mm 3 mps 639 mmHg 71%
    13:00 +7°C° 0 mm 3 mps 639 mmHg 71%
    14:00 +7°C° 0 mm 3 mps 639 mmHg 71%
    15:00 +7°C° 0 mm 3 mps 639 mmHg 71%
    16:00 +5°C° 0 mm 3 mps 639 mmHg 75%
    17:00 +5°C° 0 mm 3 mps 639 mmHg 79%
    18:00 +5°C° 0 mm 2 mps 639 mmHg 83%
    19:00 +4°C° 0 mm 2 mps 639 mmHg 85%
    20:00 +4°C° 0 mm 2 mps 639 mmHg 87%
    21:00 +4°C° 0 mm 1 mps 639 mmHg 90%
    22:00 +4°C° 0 mm 1 mps 639 mmHg 90%
    23:00 +4°C° 0 mm 1 mps 639 mmHg 90%

    28 April, Friday

    Time Temperature Precipitation Wind Pressure Humidity
    00:00 +4°C° 0 mm 1 mps 639 mmHg 91%
    01:00 +4°C° 0 mm 1 mps 638 mmHg 91%
    02:00 +4°C° 0 mm 1 mps 638 mmHg 92%
    03:00 +4°C° 0 mm 1 mps 638 mmHg 93%
    04:00 +4°C° 0 mm 1 mps 638 mmHg 92%
    05:00 +3°C° 0 mm 2 mps 639 mmHg 92%
    06:00 +4°C° 0 mm 2 mps 639 mmHg 91%
    07:00 +5°C° 0 mm 2 mps 639 mmHg 85%
    08:00 +6°C° 0 mm 2 mps 639 mmHg 79%
    09:00 +8°C° 0 mm 3 mps 640 mmHg 73%
    10:00 +9°C° 0 mm 3 mps 639 mmHg 70%
    11:00 +9°C° 0 mm 3 mps 639 mmHg 67%
    12:00 +10°C° 0 mm 3 mps 639 mmHg 64%
    13:00 +10°C° 0 mm 3 mps 638 mmHg 64%
    14:00 +10°C° 0 mm 3 mps 638 mmHg 65%
    15:00 +10°C° 0 mm 3 mps 638 mmHg 65%
    16:00 +9°C° 0 mm 3 mps 638 mmHg 69%
    17:00 +8°C° 0 mm 2 mps 637 mmHg 73%
    18:00 +7°C° 0 mm 2 mps 637 mmHg 77%
    19:00 +8°C° 0 mm 1 mps 637 mmHg 78%
    20:00 +7°C° 0 mm 1 mps 637 mmHg 79%
    21:00 +6°C° 0 mm 1 mps 637 mmHg 80%
    22:00 +6°C° 0 mm 1 mps 637 mmHg 80%
    23:00 +6°C° 0 mm 1 mps 636 mmHg 80%
    Show more